Voltar ao catálogo

ORBCOMM FM 105

AtivoComunicaçõesLEO
NORAD 41181·PAYLOAD·🇺🇸 United States

Lançado Dec 22, 2015 de Cape Canaveral Space Force Station

Loading…

Próximas Passagens (próximas 24 horas)

TLE

AtualizadoSource: Space-Track

Época: Sep 14, 2026, 07:05 UTC

1 41181U 15081C   26257.29549739  .00000044  00000-0  56617-4 0  9997
2 41181  47.0004 259.8045 0002228 224.2500 135.8202 14.45601357566446

Acompanhe ORBCOMM FM 105 em tempo real com AllMySat

Download on the App Store